Flag for Brazil Weather past 2 weeks in Porto Alegre, Rio Grande do Sul, Brazil

Now
77 °F

Scattered clouds.


Feels Like: 79 °F
Forecast: N/A
Wind: 13 mph from Southeast

Location: Porto Alegre Aero-Porto

Current Time: Oct 25, 2014 at 8:13:15 PM

Latest Report: Oct 25, 2014 at 7:00 PM


Visibility: N/A

Pressure: 29.89 "Hg

Humidity: 69%

Dew point: 66 °F

Location of Porto AlegreLocation

Historic Weather in Porto Alegre — Graph

°F

Porto Alegre temperature yesterday

Maximum temperature yesterday: 82 °F (at 5:00 PM)
Minimum temperature yesterday: 63 °F (at 4:00 AM)
Average temperature yesterday: 71 °F

Past Weeks' High & Low Weather Summary

 TemperatureHumidityPressure
High82 °F (Oct 15, 1:00 PM)100% (Oct 12, 3:00 AM)30.21 "Hg (Oct 12, 3:00 AM)
Low32 °F (Oct 16, 2:00 PM)28% (Oct 19, 5:00 AM)29.65 "Hg (Oct 19, 4:00 AM)
Average68 °F80%29.98 "Hg
* Reported Oct 10 5:00 PM — Oct 25 6:00 PM, Porto Alegre, Weather by CustomWeather, © 2014

Note: Actual official high and low records may vary slightly from our data, if they occured in-between our weather recording intervals... More about our weather records

Advertising

Porto Alegre weather history for previous 24 hours

 ConditionsComfort  
Time TempWeatherWind HumidityBarometerVisibility
6:00 PM
Oct 25
79 °FPartly sunny.15 mph70%29.86 "HgN/A
5:00 PM81 °FPartly sunny.10 mph58%29.86 "HgN/A
4:00 PM81 °FPartly sunny.8 mph62%29.89 "HgN/A
3:00 PM79 °FPartly sunny.12 mph65%29.92 "HgN/A
2:00 PM79 °FPartly sunny.8 mph65%29.92 "HgN/A
1:00 PM77 °FPartly sunny.9 mph69%29.95 "Hg6 mi
12:00 PM75 °FPartly sunny.8 mph69%29.95 "Hg6 mi
11:00 AM75 °FScattered clouds.3 mph69%29.95 "Hg5 mi
10:00 AM72 °FPartly sunny.2 mph78%29.95 "Hg5 mi
9:00 AM70 °FOvercast.No wind83%29.95 "Hg6 mi
8:00 AM70 °FOvercast.6 mph83%29.92 "Hg5 mi
7:00 AM68 °FPartly sunny.2 mph88%29.89 "Hg5 mi
6:00 AM68 °FPassing clouds.6 mph88%29.92 "Hg5 mi
5:00 AM68 °FPassing clouds.7 mph88%29.89 "Hg5 mi
4:00 AM70 °FPassing clouds.6 mph83%29.92 "Hg4 mi
3:00 AM70 °FPassing clouds.6 mph88%29.95 "Hg4 mi
2:00 AM68 °FPassing clouds.7 mph94%29.95 "Hg5 mi
1:00 AM70 °FPassing clouds.10 mph88%29.95 "Hg5 mi
12:00 AM70 °FPassing clouds.9 mph83%29.95 "Hg5 mi
11:00 PM
Oct 24
70 °FPassing clouds.12 mph88%29.95 "Hg5 mi
10:00 PM72 °FPassing clouds.9 mph83%29.95 "Hg6 mi
9:00 PM73 °FPassing clouds.9 mph78%29.92 "Hg6 mi
8:00 PM75 °FClear.6 mph69%29.89 "Hg10 mi
Weather by CustomWeather, © 2014

See weather overviewHow to use our weather pages